owner,sensor,date,latitude,longitude,vertical_datum,wind_speed,wind_to_direction,wind_speed_of_gust,qcFlag 
ADCP,ioos:station:wmo:42369:1,2014-07-01T00:00:00Z,27.2070,-90.2830,60.4,2.1,173.0,99.0,'11111222,11111222,11144222' 
ADCP,ioos:station:wmo:42369:1,2014-07-01T00:20:00Z,27.2070,-90.2830,60.4,2.4,174.0,99.0,'11111222,11111222,11144222' 
ADCP,ioos:station:wmo:42369:1,2014-07-01T00:40:00Z,27.2070,-90.2830,60.4,1.6,164.0,99.0,'11111222,11111222,11144222' 
ADCP,ioos:station:wmo:42369:1,2014-07-01T01:00:00Z,27.2070,-90.2830,60.4,2.1,167.0,99.0,'11111222,11111222,11144222' 
ADCP,ioos:station:wmo:42369:1,2014-07-01T01:20:00Z,27.2070,-90.2830,60.4,2.1,167.0,99.0,'11111222,11111222,11144222' 
ADCP,ioos:station:wmo:42369:1,2014-07-01T01:40:00Z,27.2070,-90.2830,60.4,1.9,164.0,99.0,'11111222,11111222,11144222' 
ADCP,ioos:station:wmo:42369:1,2014-07-01T02:00:00Z,27.2070,-90.2830,60.4,1.9,168.0,99.0,'11111222,11111222,11144222' 
ADCP,ioos:station:wmo:42369:1,2014-07-01T02:20:00Z,27.2070,-90.2830,60.4,1.4,161.0,99.0,'11111222,11111222,11144222' 
ADCP,ioos:station:wmo:42369:1,2014-07-01T02:40:00Z,27.2070,-90.2830,60.4,1.4,161.0,99.0,'11111222,11111222,11144222' 
ADCP,ioos:station:wmo:42369:1,2014-07-01T03:00:00Z,27.2070,-90.2830,60.4,1.4,161.0,99.0,'11111222,11111222,11144222' 
ADCP,ioos:station:wmo:42369:1,2014-07-01T03:20:00Z,27.2070,-90.2830,60.4,0.7,139.0,99.0,'11111222,11111222,11144222' 
ADCP,ioos:station:wmo:42369:1,2014-07-01T03:40:00Z,27.2070,-90.2830,60.4,1.2,158.0,99.0,'11111222,11111222,11144222' 
ADCP,ioos:station:wmo:42369:1,2014-07-01T04:00:00Z,27.2070,-90.2830,60.4,1.2,158.0,99.0,'11111222,11111222,11144222' 
ADCP,ioos:station:wmo:42369:1,2014-07-01T04:20:00Z,27.2070,-90.2830,60.4,1.5,158.0,99.0,'11111222,11111222,11144222' 
ADCP,ioos:station:wmo:42369:1,2014-07-01T04:40:00Z,27.2070,-90.2830,60.4,1.5,158.0,99.0,'11111222,11111222,11144222' 
ADCP,ioos:station:wmo:42369:1,2014-07-01T05:00:00Z,27.2070,-90.2830,60.4,0.9,136.0,99.0,'11111222,11111222,11144222' 
ADCP,ioos:station:wmo:42369:1,2014-07-01T05:20:00Z,27.2070,-90.2830,60.4,0.9,136.0,99.0,'11111222,11111222,11144222' 
ADCP,ioos:station:wmo:42369:1,2014-07-01T05:40:00Z,27.2070,-90.2830,60.4,0.9,136.0,99.0,'11111222,11111222,11144222' 
ADCP,ioos:station:wmo:42369:1,2014-07-01T06:00:00Z,27.2070,-90.2830,60.4,1.4,155.0,99.0,'11111222,11111222,11144222' 
ADCP,ioos:station:wmo:42369:1,2014-07-01T06:20:00Z,27.2070,-90.2830,60.4,2.9,171.0,99.0,'11111222,11111222,11144222' 
ADCP,ioos:station:wmo:42369:1,2014-07-01T06:40:00Z,27.2070,-90.2830,60.4,2.9,171.0,99.0,'11111222,11111222,11144222' 
ADCP,ioos:station:wmo:42369:1,2014-07-01T07:00:00Z,27.2070,-90.2830,60.4,3.4,180.0,99.0,'11111222,11111222,11144222' 
ADCP,ioos:station:wmo:42369:1,2014-07-01T07:20:00Z,27.2070,-90.2830,60.4,3.4,183.0,99.0,'11111222,11111222,11144222' 
ADCP,ioos:station:wmo:42369:1,2014-07-01T07:40:00Z,27.2070,-90.2830,60.4,3.2,184.0,99.0,'11111222,11111222,11144222' 
ADCP,ioos:station:wmo:42369:1,2014-07-01T08:00:00Z,27.2070,-90.2830,60.4,3.3,186.0,99.0,'11111222,11111222,11144222' 
ADCP,ioos:station:wmo:42369:1,2014-07-01T08:20:00Z,27.2070,-90.2830,60.4,3.6,184.0,99.0,'11111222,11111222,11144222' 
ADCP,ioos:station:wmo:42369:1,2014-07-01T08:40:00Z,27.2070,-90.2830,60.4,3.3,180.0,99.0,'11111222,11111222,11144222' 
ADCP,ioos:station:wmo:42369:1,2014-07-01T09:00:00Z,27.2070,-90.2830,60.4,3.3,180.0,99.0,'11111222,11111222,11144222' 
ADCP,ioos:station:wmo:42369:1,2014-07-01T09:20:00Z,27.2070,-90.2830,60.4,3.4,186.0,99.0,'11111222,11111222,11144222' 
ADCP,ioos:station:wmo:42369:1,2014-07-01T09:40:00Z,27.2070,-90.2830,60.4,3.4,186.0,99.0,'11111222,11111222,11144222' 
ADCP,ioos:station:wmo:42369:1,2014-07-01T10:00:00Z,27.2070,-90.2830,60.4,3.9,197.0,99.0,'11111222,11111222,11144222' 
ADCP,ioos:station:wmo:42369:1,2014-07-01T10:20:00Z,27.2070,-90.2830,60.4,3.9,197.0,99.0,'11111222,11111222,11144222' 
ADCP,ioos:station:wmo:42369:1,2014-07-01T10:40:00Z,27.2070,-90.2830,60.4,4.4,189.0,99.0,'11111222,11111222,11144222' 
ADCP,ioos:station:wmo:42369:1,2014-07-01T11:00:00Z,27.2070,-90.2830,60.4,4.1,192.0,99.0,'11111222,11111222,11144222' 
ADCP,ioos:station:wmo:42369:1,2014-07-01T11:20:00Z,27.2070,-90.2830,60.4,4.1,192.0,99.0,'11111222,11111222,11144222' 
ADCP,ioos:station:wmo:42369:1,2014-07-01T11:40:00Z,27.2070,-90.2830,60.4,4.1,192.0,99.0,'11111222,11111222,11144222' 
ADCP,ioos:station:wmo:42369:1,2014-07-01T12:00:00Z,27.2070,-90.2830,60.4,3.1,214.0,99.0,'11111222,11111222,11144222' 
ADCP,ioos:station:wmo:42369:1,2014-07-01T12:20:00Z,27.2070,-90.2830,60.4,2.9,227.0,99.0,'11111222,11111222,11144222' 
ADCP,ioos:station:wmo:42369:1,2014-07-01T12:40:00Z,27.2070,-90.2830,60.4,2.1,236.0,99.0,'11111222,11111222,11144222' 
ADCP,ioos:station:wmo:42369:1,2014-07-01T13:00:00Z,27.2070,-90.2830,60.4,1.8,235.0,99.0,'11111222,11111222,11144222' 
ADCP,ioos:station:wmo:42369:1,2014-07-01T13:20:00Z,27.2070,-90.2830,60.4,1.3,255.0,99.0,'11111222,11111222,11144222' 
ADCP,ioos:station:wmo:42369:1,2014-07-01T13:40:00Z,27.2070,-90.2830,60.4,0.9,243.0,99.0,'11111222,11111222,11144222' 
ADCP,ioos:station:wmo:42369:1,2014-07-01T14:00:00Z,27.2070,-90.2830,60.4,0.9,243.0,99.0,'11111222,11111222,11144222' 
ADCP,ioos:station:wmo:42369:1,2014-07-01T14:20:00Z,27.2070,-90.2830,60.4,1.2,258.0,99.0,'11111222,11111222,11144222' 
ADCP,ioos:station:wmo:42369:1,2014-07-01T14:40:00Z,27.2070,-90.2830,60.4,1.5,255.0,99.0,'11111222,11111222,11144222' 
ADCP,ioos:station:wmo:42369:1,2014-07-01T15:00:00Z,27.2070,-90.2830,60.4,1.5,255.0,99.0,'11111222,11111222,11144222' 
ADCP,ioos:station:wmo:42369:1,2014-07-01T15:20:00Z,27.2070,-90.2830,60.4,0.9,299.0,99.0,'11111222,11111222,11144222' 
ADCP,ioos:station:wmo:42369:1,2014-07-01T15:40:00Z,27.2070,-90.2830,60.4,0.9,299.0,99.0,'11111222,11111222,11144222' 
ADCP,ioos:station:wmo:42369:1,2014-07-01T16:00:00Z,27.2070,-90.2830,60.4,0.9,299.0,99.0,'11111222,11111222,11144222' 
ADCP,ioos:station:wmo:42369:1,2014-07-01T16:20:00Z,27.2070,-90.2830,60.4,0.3,217.0,99.0,'11111222,11111222,11144222' 
ADCP,ioos:station:wmo:42369:1,2014-07-01T16:40:00Z,27.2070,-90.2830,60.4,0.4,337.0,99.0,'11111222,11111222,11144222' 
ADCP,ioos:station:wmo:42369:1,2014-07-01T17:00:00Z,27.2070,-90.2830,60.4,0.4,337.0,99.0,'11111222,11111222,11144222' 
ADCP,ioos:station:wmo:42369:1,2014-07-01T17:20:00Z,27.2070,-90.2830,60.4,0.4,337.0,99.0,'11111222,11111222,11144222' 
ADCP,ioos:station:wmo:42369:1,2014-07-01T17:40:00Z,27.2070,-90.2830,60.4,0.2,300.0,99.0,'11111222,11111222,11144222' 
ADCP,ioos:station:wmo:42369:1,2014-07-01T18:00:00Z,27.2070,-90.2830,60.4,0.2,300.0,99.0,'11111222,11111222,11144222' 
ADCP,ioos:station:wmo:42369:1,2014-07-01T18:20:00Z,27.2070,-90.2830,60.4,0.3,332.0,99.0,'11111222,11111222,11144222' 
ADCP,ioos:station:wmo:42369:1,2014-07-01T18:40:00Z,27.2070,-90.2830,60.4,0.3,332.0,99.0,'11111222,11111222,11144222' 
ADCP,ioos:station:wmo:42369:1,2014-07-01T19:00:00Z,27.2070,-90.2830,60.4,0.3,332.0,99.0,'11111222,11111222,11144222' 
ADCP,ioos:station:wmo:42369:1,2014-07-01T19:20:00Z,27.2070,-90.2830,60.4,0.2,321.0,99.0,'11111222,11111222,11144222' 
ADCP,ioos:station:wmo:42369:1,2014-07-01T19:40:00Z,27.2070,-90.2830,60.4,0.2,321.0,99.0,'11111222,11111222,11144222' 
ADCP,ioos:station:wmo:42369:1,2014-07-01T20:00:00Z,27.2070,-90.2830,60.4,0.1,135.0,99.0,'11111222,11111222,11144222' 
ADCP,ioos:station:wmo:42369:1,2014-07-01T20:20:00Z,27.2070,-90.2830,60.4,0.4,114.0,99.0,'11111222,11111222,11144222' 
ADCP,ioos:station:wmo:42369:1,2014-07-01T20:40:00Z,27.2070,-90.2830,60.4,0.1,174.0,99.0,'11111222,11111222,11144222' 
ADCP,ioos:station:wmo:42369:1,2014-07-01T21:00:00Z,27.2070,-90.2830,60.4,0.0,178.0,99.0,'11111222,11111222,11144222' 
ADCP,ioos:station:wmo:42369:1,2014-07-01T21:20:00Z,27.2070,-90.2830,60.4,0.0,178.0,99.0,'11111222,11111222,11144222' 
ADCP,ioos:station:wmo:42369:1,2014-07-01T21:40:00Z,27.2070,-90.2830,60.4,0.0,211.0,99.0,'11111222,11111222,11144222' 
ADCP,ioos:station:wmo:42369:1,2014-07-01T22:00:00Z,27.2070,-90.2830,60.4,0.1,255.0,99.0,'11111222,11111222,11144222' 
ADCP,ioos:station:wmo:42369:1,2014-07-01T22:20:00Z,27.2070,-90.2830,60.4,0.1,255.0,99.0,'11111222,11111222,11144222' 
ADCP,ioos:station:wmo:42369:1,2014-07-01T22:40:00Z,27.2070,-90.2830,60.4,0.6,72.0,99.0,'11111222,11111222,11144222' 
ADCP,ioos:station:wmo:42369:1,2014-07-01T23:00:00Z,27.2070,-90.2830,60.4,1.1,43.0,99.0,'11111222,11111222,11144222' 
ADCP,ioos:station:wmo:42369:1,2014-07-01T23:20:00Z,27.2070,-90.2830,60.4,1.1,43.0,99.0,'11111222,11111222,11144222' 
ADCP,ioos:station:wmo:42369:1,2014-07-01T23:40:00Z,27.2070,-90.2830,60.4,1.9,37.0,99.0,'11111222,11111222,11144222' 
ADCP,ioos:station:wmo:42369:1,2014-07-02T00:00:00Z,27.2070,-90.2830,60.4,1.3,32.0,99.0,'11111222,11111222,11144222' 
ADCP,ioos:station:wmo:42369:1,2014-07-02T00:20:00Z,27.2070,-90.2830,60.4,0.6,71.0,99.0,'11111222,11111222,11144222' 
ADCP,ioos:station:wmo:42369:1,2014-07-02T00:40:00Z,27.2070,-90.2830,60.4,0.1,92.0,99.0,'11111222,11111222,11144222' 
ADCP,ioos:station:wmo:42369:1,2014-07-02T01:00:00Z,27.2070,-90.2830,60.4,0.3,66.0,99.0,'11111222,11111222,11144222' 
ADCP,ioos:station:wmo:42369:1,2014-07-02T01:20:00Z,27.2070,-90.2830,60.4,0.2,71.0,99.0,'11111222,11111222,11144222' 
ADCP,ioos:station:wmo:42369:1,2014-07-02T01:40:00Z,27.2070,-90.2830,60.4,0.2,71.0,99.0,'11111222,11111222,11144222' 
ADCP,ioos:station:wmo:42369:1,2014-07-02T02:00:00Z,27.2070,-90.2830,60.4,0.9,148.0,99.0,'11111222,11111222,11144222' 
ADCP,ioos:station:wmo:42369:1,2014-07-02T02:20:00Z,27.2070,-90.2830,60.4,2.0,32.0,99.0,'11111222,11111222,11144222' 
ADCP,ioos:station:wmo:42369:1,2014-07-02T02:40:00Z,27.2070,-90.2830,60.4,1.6,43.0,99.0,'11111222,11111222,11144222' 
ADCP,ioos:station:wmo:42369:1,2014-07-02T03:00:00Z,27.2070,-90.2830,60.4,1.6,43.0,99.0,'11111222,11111222,11144222' 
ADCP,ioos:station:wmo:42369:1,2014-07-02T03:20:00Z,27.2070,-90.2830,60.4,0.7,65.0,99.0,'11111222,11111222,11144222' 
ADCP,ioos:station:wmo:42369:1,2014-07-02T03:40:00Z,27.2070,-90.2830,60.4,0.5,50.0,99.0,'11111222,11111222,11144222' 
ADCP,ioos:station:wmo:42369:1,2014-07-02T04:00:00Z,27.2070,-90.2830,60.4,0.1,171.0,99.0,'11111222,11111222,11144222' 
ADCP,ioos:station:wmo:42369:1,2014-07-02T04:20:00Z,27.2070,-90.2830,60.4,0.0,231.0,99.0,'11111222,11111222,11144222' 
ADCP,ioos:station:wmo:42369:1,2014-07-02T04:40:00Z,27.2070,-90.2830,60.4,0.0,125.0,99.0,'11111222,11111222,11144222' 
ADCP,ioos:station:wmo:42369:1,2014-07-02T05:00:00Z,27.2070,-90.2830,60.4,0.0,116.0,99.0,'11111222,11111222,11144222' 
ADCP,ioos:station:wmo:42369:1,2014-07-02T05:20:00Z,27.2070,-90.2830,60.4,0.0,116.0,99.0,'11111222,11111222,11144222' 
ADCP,ioos:station:wmo:42369:1,2014-07-02T05:40:00Z,27.2070,-90.2830,60.4,0.2,309.0,99.0,'11111222,11111222,11144222' 
ADCP,ioos:station:wmo:42369:1,2014-07-02T06:00:00Z,27.2070,-90.2830,60.4,0.5,325.0,99.0,'11111222,11111222,11144222' 
ADCP,ioos:station:wmo:42369:1,2014-07-02T06:20:00Z,27.2070,-90.2830,60.4,0.5,325.0,99.0,'11111222,11111222,11144222' 
ADCP,ioos:station:wmo:42369:1,2014-07-02T06:40:00Z,27.2070,-90.2830,60.4,0.5,325.0,99.0,'11111222,11111222,11144222' 
ADCP,ioos:station:wmo:42369:1,2014-07-02T07:00:00Z,27.2070,-90.2830,60.4,0.2,331.0,99.0,'11111222,11111222,11144222' 
ADCP,ioos:station:wmo:42369:1,2014-07-02T07:20:00Z,27.2070,-90.2830,60.4,0.2,331.0,99.0,'11111222,11111222,11144222' 
ADCP,ioos:station:wmo:42369:1,2014-07-02T07:40:00Z,27.2070,-90.2830,60.4,0.4,282.0,99.0,'11111222,11111222,11144222' 
ADCP,ioos:station:wmo:42369:1,2014-07-02T08:00:00Z,27.2070,-90.2830,60.4,1.6,298.0,99.0,'11111222,11111222,11144222' 
ADCP,ioos:station:wmo:42369:1,2014-07-02T08:20:00Z,27.2070,-90.2830,60.4,2.3,311.0,99.0,'11111222,11111222,11144222' 
ADCP,ioos:station:wmo:42369:1,2014-07-02T08:40:00Z,27.2070,-90.2830,60.4,2.3,311.0,99.0,'11111222,11111222,11144222' 
ADCP,ioos:station:wmo:42369:1,2014-07-02T09:00:00Z,27.2070,-90.2830,60.4,1.0,330.0,99.0,'11111222,11111222,11144222' 
ADCP,ioos:station:wmo:42369:1,2014-07-02T09:20:00Z,27.2070,-90.2830,60.4,1.6,341.0,99.0,'11111222,11111222,11144222' 
ADCP,ioos:station:wmo:42369:1,2014-07-02T09:40:00Z,27.2070,-90.2830,60.4,1.6,341.0,99.0,'11111222,11111222,11144222' 
ADCP,ioos:station:wmo:42369:1,2014-07-02T10:00:00Z,27.2070,-90.2830,60.4,2.0,290.0,99.0,'11111222,11111222,11144222' 
ADCP,ioos:station:wmo:42369:1,2014-07-02T10:20:00Z,27.2070,-90.2830,60.4,2.0,290.0,99.0,'11111222,11111222,11144222' 
ADCP,ioos:station:wmo:42369:1,2014-07-02T10:40:00Z,27.2070,-90.2830,60.4,2.1,327.0,99.0,'11111222,11111222,11144222' 
ADCP,ioos:station:wmo:42369:1,2014-07-02T11:00:00Z,27.2070,-90.2830,60.4,2.1,337.0,99.0,'11111222,11111222,11144222' 
ADCP,ioos:station:wmo:42369:1,2014-07-02T11:20:00Z,27.2070,-90.2830,60.4,2.1,337.0,99.0,'11111222,11111222,11144222' 
ADCP,ioos:station:wmo:42369:1,2014-07-02T11:40:00Z,27.2070,-90.2830,60.4,1.3,320.0,99.0,'11111222,11111222,11144222' 
ADCP,ioos:station:wmo:42369:1,2014-07-02T12:00:00Z,27.2070,-90.2830,60.4,1.3,320.0,99.0,'11111222,11111222,11144222' 
ADCP,ioos:station:wmo:42369:1,2014-07-02T12:20:00Z,27.2070,-90.2830,60.4,1.8,314.0,99.0,'11111222,11111222,11144222' 
ADCP,ioos:station:wmo:42369:1,2014-07-02T12:40:00Z,27.2070,-90.2830,60.4,1.8,314.0,99.0,'11111222,11111222,11144222' 
ADCP,ioos:station:wmo:42369:1,2014-07-02T13:00:00Z,27.2070,-90.2830,60.4,1.8,314.0,99.0,'11111222,11111222,11144222' 
ADCP,ioos:station:wmo:42369:1,2014-07-02T13:20:00Z,27.2070,-90.2830,60.4,1.7,214.0,99.0,'11111222,11111222,11144222' 
ADCP,ioos:station:wmo:42369:1,2014-07-02T13:40:00Z,27.2070,-90.2830,60.4,1.7,214.0,99.0,'11111222,11111222,11144222' 
ADCP,ioos:station:wmo:42369:1,2014-07-02T14:00:00Z,27.2070,-90.2830,60.4,1.7,214.0,99.0,'11111222,11111222,11144222' 
ADCP,ioos:station:wmo:42369:1,2014-07-02T14:20:00Z,27.2070,-90.2830,60.4,3.7,199.0,99.0,'11111222,11111222,11144222' 
ADCP,ioos:station:wmo:42369:1,2014-07-02T14:40:00Z,27.2070,-90.2830,60.4,3.7,199.0,99.0,'11111222,11111222,11144222' 
ADCP,ioos:station:wmo:42369:1,2014-07-02T15:00:00Z,27.2070,-90.2830,60.4,3.7,199.0,99.0,'11111222,11111222,11144222' 
ADCP,ioos:station:wmo:42369:1,2014-07-02T15:20:00Z,27.2070,-90.2830,60.4,6.3,20.0,99.0,'11111222,11111222,11144222' 
ADCP,ioos:station:wmo:42369:1,2014-07-02T15:40:00Z,27.2070,-90.2830,60.4,6.6,18.0,99.0,'11111222,11111222,11144222' 
ADCP,ioos:station:wmo:42369:1,2014-07-02T16:00:00Z,27.2070,-90.2830,60.4,5.9,29.0,99.0,'11111222,11111222,11144222' 
ADCP,ioos:station:wmo:42369:1,2014-07-02T16:20:00Z,27.2070,-90.2830,60.4,5.9,29.0,99.0,'11111222,11111222,11144222' 
ADCP,ioos:station:wmo:42369:1,2014-07-02T16:40:00Z,27.2070,-90.2830,60.4,5.9,29.0,99.0,'11111222,11111222,11144222' 
ADCP,ioos:station:wmo:42369:1,2014-07-02T17:00:00Z,27.2070,-90.2830,60.4,5.9,29.0,99.0,'11111222,11111222,11144222' 
ADCP,ioos:station:wmo:42369:1,2014-07-02T17:20:00Z,27.2070,-90.2830,60.4,3.8,23.0,99.0,'11111222,11111222,11144222' 
ADCP,ioos:station:wmo:42369:1,2014-07-02T17:40:00Z,27.2070,-90.2830,60.4,3.0,24.0,99.0,'11111222,11111222,11144222' 
ADCP,ioos:station:wmo:42369:1,2014-07-02T18:00:00Z,27.2070,-90.2830,60.4,2.8,18.0,99.0,'11111222,11111222,11144222' 
ADCP,ioos:station:wmo:42369:1,2014-07-02T18:20:00Z,27.2070,-90.2830,60.4,2.8,18.0,99.0,'11111222,11111222,11144222' 
ADCP,ioos:station:wmo:42369:1,2014-07-02T18:40:00Z,27.2070,-90.2830,60.4,2.4,47.0,99.0,'11111222,11111222,11144222' 
ADCP,ioos:station:wmo:42369:1,2014-07-02T19:00:00Z,27.2070,-90.2830,60.4,2.4,47.0,99.0,'11111222,11111222,11144222' 
ADCP,ioos:station:wmo:42369:1,2014-07-02T19:20:00Z,27.2070,-90.2830,60.4,0.5,76.0,99.0,'11111222,11111222,11144222' 
ADCP,ioos:station:wmo:42369:1,2014-07-02T19:40:00Z,27.2070,-90.2830,60.4,0.5,76.0,99.0,'11111222,11111222,11144222' 
ADCP,ioos:station:wmo:42369:1,2014-07-02T20:00:00Z,27.2070,-90.2830,60.4,1.0,95.0,99.0,'11111222,11111222,11144222' 
ADCP,ioos:station:wmo:42369:1,2014-07-02T20:20:00Z,27.2070,-90.2830,60.4,1.0,95.0,99.0,'11111222,11111222,11144222' 
ADCP,ioos:station:wmo:42369:1,2014-07-02T20:40:00Z,27.2070,-90.2830,60.4,1.2,96.0,99.0,'11111222,11111222,11144222' 
ADCP,ioos:station:wmo:42369:1,2014-07-02T21:00:00Z,27.2070,-90.2830,60.4,0.5,103.0,99.0,'11111222,11111222,11144222' 
ADCP,ioos:station:wmo:42369:1,2014-07-02T21:20:00Z,27.2070,-90.2830,60.4,0.3,96.0,99.0,'11111222,11111222,11144222' 
ADCP,ioos:station:wmo:42369:1,2014-07-02T21:40:00Z,27.2070,-90.2830,60.4,0.2,100.0,99.0,'11111222,11111222,11144222' 
ADCP,ioos:station:wmo:42369:1,2014-07-02T22:00:00Z,27.2070,-90.2830,60.4,0.5,259.0,99.0,'11111222,11111222,11144222' 
ADCP,ioos:station:wmo:42369:1,2014-07-02T22:20:00Z,27.2070,-90.2830,60.4,0.5,259.0,99.0,'11111222,11111222,11144222' 
ADCP,ioos:station:wmo:42369:1,2014-07-02T22:40:00Z,27.2070,-90.2830,60.4,0.5,259.0,99.0,'11111222,11111222,11144222' 
ADCP,ioos:station:wmo:42369:1,2014-07-02T23:00:00Z,27.2070,-90.2830,60.4,0.5,259.0,99.0,'11111222,11111222,11144222' 
ADCP,ioos:station:wmo:42369:1,2014-07-02T23:20:00Z,27.2070,-90.2830,60.4,4.2,182.0,99.0,'11111222,11111222,11144222' 
ADCP,ioos:station:wmo:42369:1,2014-07-02T23:40:00Z,27.2070,-90.2830,60.4,3.5,172.0,99.0,'11111222,11111222,11144222' 
ADCP,ioos:station:wmo:42369:1,2014-07-03T00:00:00Z,27.2070,-90.2830,60.4,3.4,172.0,99.0,'11111222,11111222,11144222' 
ADCP,ioos:station:wmo:42369:1,2014-07-03T00:20:00Z,27.2070,-90.2830,60.4,3.0,172.0,99.0,'11111222,11111222,11144222' 
ADCP,ioos:station:wmo:42369:1,2014-07-03T00:40:00Z,27.2070,-90.2830,60.4,3.0,172.0,99.0,'11111222,11111222,11144222' 
ADCP,ioos:station:wmo:42369:1,2014-07-03T01:00:00Z,27.2070,-90.2830,60.4,3.0,172.0,99.0,'11111222,11111222,11144222' 
ADCP,ioos:station:wmo:42369:1,2014-07-03T01:20:00Z,27.2070,-90.2830,60.4,2.7,202.0,99.0,'11111222,11111222,11144222' 
ADCP,ioos:station:wmo:42369:1,2014-07-03T01:40:00Z,27.2070,-90.2830,60.4,2.3,212.0,99.0,'11111222,11111222,11144222' 
ADCP,ioos:station:wmo:42369:1,2014-07-03T02:00:00Z,27.2070,-90.2830,60.4,1.9,214.0,99.0,'11111222,11111222,11144222' 
ADCP,ioos:station:wmo:42369:1,2014-07-03T02:20:00Z,27.2070,-90.2830,60.4,1.7,217.0,99.0,'11111222,11111222,11144222' 
ADCP,ioos:station:wmo:42369:1,2014-07-03T02:40:00Z,27.2070,-90.2830,60.4,1.5,250.0,99.0,'11111222,11111222,11144222' 
ADCP,ioos:station:wmo:42369:1,2014-07-03T03:00:00Z,27.2070,-90.2830,60.4,1.1,249.0,99.0,'11111222,11111222,11144222' 
ADCP,ioos:station:wmo:42369:1,2014-07-03T03:20:00Z,27.2070,-90.2830,60.4,1.1,249.0,99.0,'11111222,11111222,11144222' 
ADCP,ioos:station:wmo:42369:1,2014-07-03T03:40:00Z,27.2070,-90.2830,60.4,1.1,194.0,99.0,'11111222,11111222,11144222' 
ADCP,ioos:station:wmo:42369:1,2014-07-03T04:00:00Z,27.2070,-90.2830,60.4,2.8,26.0,99.0,'11111222,11111222,11144222' 
ADCP,ioos:station:wmo:42369:1,2014-07-03T04:20:00Z,27.2070,-90.2830,60.4,2.8,26.0,99.0,'11111222,11111222,11144222' 
ADCP,ioos:station:wmo:42369:1,2014-07-03T04:40:00Z,27.2070,-90.2830,60.4,4.5,46.0,99.0,'11111222,11111222,11144222' 
ADCP,ioos:station:wmo:42369:1,2014-07-03T05:00:00Z,27.2070,-90.2830,60.4,4.4,71.0,99.0,'11111222,11111222,11144222' 
ADCP,ioos:station:wmo:42369:1,2014-07-03T05:20:00Z,27.2070,-90.2830,60.4,4.3,70.0,99.0,'11111222,11111222,11144222' 
ADCP,ioos:station:wmo:42369:1,2014-07-03T05:40:00Z,27.2070,-90.2830,60.4,5.1,44.0,99.0,'11111222,11111222,11144222' 
ADCP,ioos:station:wmo:42369:1,2014-07-03T06:00:00Z,27.2070,-90.2830,60.4,4.2,18.0,99.0,'11111222,11111222,11144222' 
ADCP,ioos:station:wmo:42369:1,2014-07-03T06:20:00Z,27.2070,-90.2830,60.4,3.9,24.0,99.0,'11111222,11111222,11144222' 
ADCP,ioos:station:wmo:42369:1,2014-07-03T06:40:00Z,27.2070,-90.2830,60.4,3.3,23.0,99.0,'11111222,11111222,11144222' 
ADCP,ioos:station:wmo:42369:1,2014-07-03T07:00:00Z,27.2070,-90.2830,60.4,3.8,17.0,99.0,'11111222,11111222,11144222' 
ADCP,ioos:station:wmo:42369:1,2014-07-03T07:20:00Z,27.2070,-90.2830,60.4,4.0,19.0,99.0,'11111222,11111222,11144222' 
ADCP,ioos:station:wmo:42369:1,2014-07-03T07:40:00Z,27.2070,-90.2830,60.4,3.4,26.0,99.0,'11111222,11111222,11144222' 
ADCP,ioos:station:wmo:42369:1,2014-07-03T08:00:00Z,27.2070,-90.2830,60.4,3.5,35.0,99.0,'11111222,11111222,11144222' 
ADCP,ioos:station:wmo:42369:1,2014-07-03T08:20:00Z,27.2070,-90.2830,60.4,3.3,13.0,99.0,'11111222,11111222,11144222' 
ADCP,ioos:station:wmo:42369:1,2014-07-03T08:40:00Z,27.2070,-90.2830,60.4,3.3,13.0,99.0,'11111222,11111222,11144222' 
ADCP,ioos:station:wmo:42369:1,2014-07-03T09:00:00Z,27.2070,-90.2830,60.4,3.1,17.0,99.0,'11111222,11111222,11144222' 
ADCP,ioos:station:wmo:42369:1,2014-07-03T09:20:00Z,27.2070,-90.2830,60.4,3.1,17.0,99.0,'11111222,11111222,11144222' 
ADCP,ioos:station:wmo:42369:1,2014-07-03T09:40:00Z,27.2070,-90.2830,60.4,1.1,299.0,99.0,'11111222,11111222,11144222' 
ADCP,ioos:station:wmo:42369:1,2014-07-03T10:00:00Z,27.2070,-90.2830,60.4,1.1,299.0,99.0,'11111222,11111222,11144222' 
ADCP,ioos:station:wmo:42369:1,2014-07-03T10:20:00Z,27.2070,-90.2830,60.4,1.1,299.0,99.0,'11111222,11111222,11144222' 
ADCP,ioos:station:wmo:42369:1,2014-07-03T10:40:00Z,27.2070,-90.2830,60.4,1.1,299.0,99.0,'11111222,11111222,11144222' 
ADCP,ioos:station:wmo:42369:1,2014-07-03T11:00:00Z,27.2070,-90.2830,60.4,1.1,299.0,99.0,'11111222,11111222,11144222' 
ADCP,ioos:station:wmo:42369:1,2014-07-03T11:20:00Z,27.2070,-90.2830,60.4,1.1,299.0,99.0,'11111222,11111222,11144222' 
ADCP,ioos:station:wmo:42369:1,2014-07-03T11:40:00Z,27.2070,-90.2830,60.4,1.1,299.0,99.0,'11111222,11111222,11144222' 
ADCP,ioos:station:wmo:42369:1,2014-07-03T12:00:00Z,27.2070,-90.2830,60.4,1.1,299.0,99.0,'11111222,11111222,11144222' 
ADCP,ioos:station:wmo:42369:1,2014-07-03T12:20:00Z,27.2070,-90.2830,60.4,2.8,316.0,99.0,'11111222,11111222,11144222' 
ADCP,ioos:station:wmo:42369:1,2014-07-03T12:40:00Z,27.2070,-90.2830,60.4,2.8,316.0,99.0,'11111222,11111222,11144222' 
ADCP,ioos:station:wmo:42369:1,2014-07-03T13:00:00Z,27.2070,-90.2830,60.4,2.8,316.0,99.0,'11111222,11111222,11144222' 
ADCP,ioos:station:wmo:42369:1,2014-07-03T13:20:00Z,27.2070,-90.2830,60.4,1.8,321.0,99.0,'11111222,11111222,11144222' 
ADCP,ioos:station:wmo:42369:1,2014-07-03T13:40:00Z,27.2070,-90.2830,60.4,2.0,324.0,99.0,'11111222,11111222,11144222' 
ADCP,ioos:station:wmo:42369:1,2014-07-03T14:00:00Z,27.2070,-90.2830,60.4,2.0,314.0,99.0,'11111222,11111222,11144222' 
ADCP,ioos:station:wmo:42369:1,2014-07-03T14:20:00Z,27.2070,-90.2830,60.4,2.5,329.0,99.0,'11111222,11111222,11144222' 
ADCP,ioos:station:wmo:42369:1,2014-07-03T14:40:00Z,27.2070,-90.2830,60.4,5.1,123.0,99.0,'11111222,11111222,11144222' 
ADCP,ioos:station:wmo:42369:1,2014-07-03T15:00:00Z,27.2070,-90.2830,60.4,6.2,22.0,99.0,'11111222,11111222,11144222' 
ADCP,ioos:station:wmo:42369:1,2014-07-03T15:20:00Z,27.2070,-90.2830,60.4,5.5,19.0,99.0,'11111222,11111222,11144222' 
ADCP,ioos:station:wmo:42369:1,2014-07-03T15:40:00Z,27.2070,-90.2830,60.4,5.5,18.0,99.0,'11111222,11111222,11144222' 
ADCP,ioos:station:wmo:42369:1,2014-07-03T16:00:00Z,27.2070,-90.2830,60.4,5.1,25.0,99.0,'11111222,11111222,11144222' 
ADCP,ioos:station:wmo:42369:1,2014-07-03T16:20:00Z,27.2070,-90.2830,60.4,5.8,19.0,99.0,'11111222,11111222,11144222' 
ADCP,ioos:station:wmo:42369:1,2014-07-03T16:40:00Z,27.2070,-90.2830,60.4,5.2,23.0,99.0,'11111222,11111222,11144222' 
ADCP,ioos:station:wmo:42369:1,2014-07-03T17:00:00Z,27.2070,-90.2830,60.4,5.3,23.0,99.0,'11111222,11111222,11144222' 
ADCP,ioos:station:wmo:42369:1,2014-07-03T17:20:00Z,27.2070,-90.2830,60.4,5.7,18.0,99.0,'11111222,11111222,11144222' 
ADCP,ioos:station:wmo:42369:1,2014-07-03T17:40:00Z,27.2070,-90.2830,60.4,5.9,17.0,99.0,'11111222,11111222,11144222' 
ADCP,ioos:station:wmo:42369:1,2014-07-03T18:00:00Z,27.2070,-90.2830,60.4,4.1,31.0,99.0,'11111222,11111222,11144222' 
ADCP,ioos:station:wmo:42369:1,2014-07-03T18:20:00Z,27.2070,-90.2830,60.4,2.7,43.0,99.0,'11111222,11111222,11144222' 
ADCP,ioos:station:wmo:42369:1,2014-07-03T18:40:00Z,27.2070,-90.2830,60.4,1.4,83.0,99.0,'11111222,11111222,11144222' 
ADCP,ioos:station:wmo:42369:1,2014-07-03T19:00:00Z,27.2070,-90.2830,60.4,1.5,100.0,99.0,'11111222,11111222,11144222' 
ADCP,ioos:station:wmo:42369:1,2014-07-03T19:20:00Z,27.2070,-90.2830,60.4,1.5,100.0,99.0,'11111222,11111222,11144222' 